STARLINK-3366, 51104

Orbit data source: Space-Track

STARLINK-3366, 51104 is a payload satellite owned by SpaceX/Seattle (US) in LEO that was launched on Wed, 19 Jan 2022 UTC via an FALCON 9 launch vehicle from the Air Force Eastern Test Range (AFETR). Payload-class satellites include a variety of spacecraft equipped with specific instruments for various scientific and technological missions. These include communications satellites like Starlink; space stations such as the ISS; scientific satellites like the Hubble; Earth observation satellites from companies like Planet Labs, Umbra, and HawkEye 360; GPS; miniature CubeSats for education and research; and military/defense satellites.

Loading next visibility...
Identifier
51104, 2022-005A
Orbit
LEO
Country
Flag of USUS
Related business
Manufacturer
SpaceX/Seattle
Mission
Operational Commercial Communications
Bus & Motor
STARLINK, Unknown motor
Mass
297 kg wet, ~275 kg dry
Launch date (UTC)
2022-01-19 (4 years ago)
Launch vehicle
FALCON 9
Launch site
Air Force Eastern Test Range (AFETR)
Object type
Payload
Rocket body
Debris
Shape & HBR
Box + 1 Pan, 10.1 m
Radar Cross Section
13.562 m², Large (>1 m²)

Expand to show TLE details & history
Last TLE update: 14 hours ago

TLE from 14 hours ago
0 STARLINK-3366
1 51104U 22005A   26094.24195597  .00002676  00000-0  18626-3 0  9990
2 51104  53.2162 174.4138 0001328 104.3951 255.7189 15.08824648232737
Epoch: 2026-04-04T05:48Z
TLE epoch observation values (Epoch: 2026-04-04T05:48:24.995Z)
Latitude
-0.00001°
Longitude
-105.2549°
Altitude
540.914 km
Speed
7.593 km/s
True Right ascension
11h 37m 39s
True Declination
0° 00' 00"
Sunlit
Object was in full shadow at epoch
Visualization orbit readout
Latitude
Unknown
Longitude
Unknown
Altitude
Unknown
Speed
Unknown
Apparent Right ascension
Unknown
Apparent Declination
Unknown
Sunlit
N/A
Visualization observer readout
Local Sidereal Time
01:22:49
Azimuth
Unknown
Elevation
Unknown
Doppler factor
Unknown
Orbital elements
Apogee altitude
540.954 km
Perigee altitude
539.117 km
Semi-major axis
6,918.172 km
Eccentricity
0.00013
Inclination
53.2162°
RAAN
174.4138°
Arg. of periapsis
104.3951°
True anomaly
255.70415°
Mean anomaly
255.7189°
Eccentric anomaly
255.71153°
Mean motion
3.77186 °/min
Orbital period
95.44 mins
BSTAR
0.00018626
Loading maneuver chart data...
Computing Atmospheric mass density...
Loading historical data...
Loading historical data...
Loading historical data...
Loading historical data...
Loading historical data...
Loading historical data...
Loading historical data...

Documentation

Showing up to 5 results
|